Regional Weather Roundup
Issued by NWS

Home | Current Version | Previous Version | Text Only | Print | Product List | Glossary Off
Versions: 1 2 3 4 5 6 7 8 9 10 11 12 13 14 15 16 17 18 19 20 21 22 23 24 25 26 27 28 29 30 31 32 33 34 35 36 37 38 39 40 41 42 43 44 45 46 47 48 49 50

000
ASUS43 KFSD 020310
RWRSD

WEATHER ROUNDUP FOR SOUTH DAKOTA
NATIONAL WEATHER SERVICE SIOUX FALLS SD
1000 PM CDT MON SEP 01 2014

NOTE: "FAIR" INDICATES FEW OR NO CLOUDS BELOW 12,000 FEET WITH NO
SIGNIFICANT WEATHER AND/OR OBSTRUCTIONS TO VISIBILITY.


SDZ001>005-009-010-012>017-020400-
NORTHWEST AND NORTH CENTRAL SOUTH DAKOTA

CITY           SKY/WX    TMP DP  RH WIND       PRES   REMARKS
BUFFALO          N/A     60  45  57 SW5       29.88R
FAITH            N/A     53  50  89 CALM      29.93R
MOBRIDGE       CLOUDY    57  54  89 CALM      29.86F
$$

SDZ012>016-024>037-041>051-057-063-072>074-020400-
SOUTHWEST AND SOUTH CENTRAL SOUTH DAKOTA

CITY           SKY/WX    TMP DP  RH WIND       PRES   REMARKS
RAPID CTY ARPT CLEAR     52  48  86 W3        29.99R
PIERRE         CLOUDY    60  53  77 CALM      29.89S
CUSTER         CLEAR     49  37  63 W5        30.08R
ELLSWORTH AFB  CLEAR     56  45  67 W6        29.99R
PHILIP         PTCLDY    58  52  80 W6        29.94R
PINE RIDGE     CLEAR     51  50  96 MISG      30.01R
WINNER         FAIR      59  56  89 NE3       29.90F
$$

SDZ004>011-016>023-039-040-020400-
NORTHEAST SOUTH DAKOTA

CITY           SKY/WX    TMP DP  RH WIND       PRES   REMARKS
ABERDEEN       CLOUDY    58  57  97 S5        29.85R
WATERTOWN      CLOUDY    61  51  70 SW9       29.86R
SISSETON         N/A     64  56  75 W6        29.83R
$$

SDZ017-020-022-023-036>040-048>070-020400-
SOUTHEAST SOUTH DAKOTA

CITY           SKY/WX    TMP DP  RH WIND       PRES   REMARKS
SIOUX FALLS    CLOUDY    63  57  81 NW5       29.88R
HURON          CLOUDY    61  55  81 SW8       29.87S
CHAMBERLAIN    CLOUDY    58  56  91 SW7       29.91F
MITCHELL       LGT RAIN  60  58  92 SW9       29.92R
YANKTON        MOCLDY    66  57  72 W28G35    29.90R
$$

ABBREVIATIONS USED IN REMARKS
   TC - TEMPERATURE IN CELSIUS
  WCI - WIND CHILL INDEX
   HX - HEAT INDEX
  VSB - VISIBILITY



USA.gov is the U.S. government's official web portal to all federal, state and local government web resources and services.